Location: Wien
(48.2082°N, 16.3738°E)
Time: 23:18:20
(UTC+02:00)

STARS - Visible Passes

Search period start: 24 April 2024 00:00
Search period end: 04 May 2024 00:00
Orbit: 608 x 620 km, 98.1° (Epoch: 23 April)

Date Brightness Start Highest point End Pass type
(mag) Time Alt. Az. Time Alt. Az. Time Alt. Az.
24 Apr ? 01:00:55 10° NNE 01:03:51 42° NNE 01:03:51 42° NNE visible
24 Apr ? 02:38:16 10° NNW 02:40:38 15° WNW 02:40:54 15° WNW visible
24 Apr ? 23:42:23 10° ENE 23:42:28 10° ENE 23:42:28 10° ENE visible
25 Apr ? 01:16:18 10° NNE 01:19:30 49° N 01:19:30 49° N visible
25 Apr ? 02:54:46 10° NW 02:55:49 11° NW 02:56:33 10° WNW visible
25 Apr ? 23:56:48 10° NE 23:58:06 14° ENE 23:58:06 14° ENE visible
26 Apr ? 01:31:44 10° N 01:35:08 46° NNW 01:35:08 46° NNW visible
27 Apr ? 00:11:39 10° NE 00:13:43 20° ENE 00:13:43 20° ENE visible
27 Apr ? 01:47:14 10° N 01:50:45 37° NW 01:50:45 37° NW visible
28 Apr ? 00:26:42 10° NNE 00:29:19 27° ENE 00:29:19 27° ENE visible
28 Apr ? 02:02:48 10° N 02:06:21 28° WNW 02:06:21 28° WNW visible
29 Apr ? 00:41:51 10° NNE 00:44:54 37° ENE 00:44:54 37° ENE visible
29 Apr ? 02:18:26 10° NNW 02:21:41 21° WNW 02:21:56 21° WNW visible
30 Apr ? 00:57:05 10° NNE 01:00:28 51° NE 01:00:28 51° NE visible
30 Apr ? 02:34:14 10° NNW 02:36:50 16° WNW 02:37:30 15° WNW visible
01 May ? 01:12:21 10° NNE 01:16:00 63° N 01:16:00 63° N visible
01 May ? 02:50:21 10° NW 02:51:56 12° WNW 02:53:03 11° WNW visible
01 May ? 23:53:01 10° NE 23:54:30 14° ENE 23:54:30 14° ENE visible
02 May ? 01:27:41 10° N 01:31:32 58° NW 01:31:32 58° NW visible
03 May ? 00:07:41 10° NE 00:10:01 20° ENE 00:10:01 20° ENE visible
03 May ? 01:43:04 10° N 01:47:03 43° WNW 01:47:03 43° WNW visible
